User: anonymous   Login
Location: Unspecified
(0.0000°N, 0.0000°E)
Time: 02:54:43
(UTC+02:00)
Language:

Cosmos 1933 - Orbit

View from above orbital plane
View from above orbital plane
View from above satellite
View from above satellite

Ground track
Ground track

The orbit data is extracted from the following two-line orbital elements,

1 18958U 88020A   16208.94204110 +.00000413 +00000-0 +28588-4 0  9990
2 18958 082.5282 057.6215 0010582 314.1770 045.8585 15.02963674521506
Epoch (UTC): 26 July 2016 22:36:32
Eccentricity: 0.0010582
inclination: 82.5282°
perigee height: 550 km
apogee height: 565 km
right ascension of ascending node: 57.6215°
argument of perigee: 314.1770°
revolutions per day: 15.02963674
mean anomaly at epoch: 45.8585°
orbit number at epoch: 52150

The dashed part of the orbit path shows where the satellite is in the earth's shadow,  

DLR